Вернуться в каталог

ATLAS 5 CENTAUR DEB

АктивенHEO
NORAD 43967·DEBRIS·🇺🇸 United States

Запущен Sep 17, 2014 с Cape Canaveral Space Force Station

Loading…

Ближайшие Пролёты (ближайшие 24 часа)

TLE

СвежийSource: Space-Track

Эпоха: Sep 12, 2026, 19:21 UTC

1 43967U 14055W   26255.80674096 -.00000112  00000-0  00000-0 0  9999
2 43967  20.4004 125.8661 4989751 195.3453 141.1636  1.82855645 53603

Отслеживайте ATLAS 5 CENTAUR DEB в реальном времени с AllMySat

Download on the App Store